<?xml version="1.0"?>
<gpx xmlns="http://www.topografix.com/GPX/1/1" xmlns:xsi="http://www.w3.org/2001/XMLSchema-instance" version="1.1" creator="GPX RubyGem 1.0.0 -- http://dougfales.github.io/gpx/" xsi:schemaLocation="http://www.topografix.com/GPX/1/1 http://www.topografix.com/GPX/1/1/gpx.xsd">
  <metadata>
    <name/>
    <time>2026-05-10T00:35:39+00:00</time>
    <bound minlat="90.0" minlon="180.0" maxlat="-90.0" maxlon="-180.0"/>
  </metadata>
  <trk>
    <name/>
    <trkseg>
      <trkpt lat="50.915532" lon="12.900449">
        <time>1970-01-01T00:00:00+00:00</time>
        <ele>273.0</ele>
      </trkpt>
      <trkpt lat="50.915419" lon="12.899611">
        <time>1970-01-01T00:00:00+00:00</time>
        <ele>271.0</ele>
      </trkpt>
      <trkpt lat="50.915346" lon="12.899637">
        <time>1970-01-01T00:00:00+00:00</time>
        <ele>271.0</ele>
      </trkpt>
      <trkpt lat="50.915231" lon="12.899672">
        <time>1970-01-01T00:00:00+00:00</time>
        <ele>270.0</ele>
      </trkpt>
      <trkpt lat="50.915112" lon="12.899683">
        <time>1970-01-01T00:00:00+00:00</time>
        <ele>270.0</ele>
      </trkpt>
      <trkpt lat="50.914889" lon="12.899684">
        <time>1970-01-01T00:00:00+00:00</time>
        <ele>270.0</ele>
      </trkpt>
      <trkpt lat="50.914891" lon="12.900013">
        <time>1970-01-01T00:00:00+00:00</time>
        <ele>271.0</ele>
      </trkpt>
      <trkpt lat="50.914949" lon="12.900409">
        <time>1970-01-01T00:00:00+00:00</time>
        <ele>271.0</ele>
      </trkpt>
      <trkpt lat="50.914954" lon="12.900473">
        <time>1970-01-01T00:00:00+00:00</time>
        <ele>271.0</ele>
      </trkpt>
      <trkpt lat="50.91496" lon="12.900592">
        <time>1970-01-01T00:00:00+00:00</time>
        <ele>271.0</ele>
      </trkpt>
      <trkpt lat="50.914964" lon="12.900667">
        <time>1970-01-01T00:00:00+00:00</time>
        <ele>271.0</ele>
      </trkpt>
      <trkpt lat="50.914975" lon="12.900999">
        <time>1970-01-01T00:00:00+00:00</time>
        <ele>271.0</ele>
      </trkpt>
      <trkpt lat="50.914978" lon="12.901203">
        <time>1970-01-01T00:00:00+00:00</time>
        <ele>270.0</ele>
      </trkpt>
      <trkpt lat="50.914979" lon="12.901304">
        <time>1970-01-01T00:00:00+00:00</time>
        <ele>270.0</ele>
      </trkpt>
      <trkpt lat="50.915" lon="12.902016">
        <time>1970-01-01T00:00:00+00:00</time>
        <ele>271.0</ele>
      </trkpt>
      <trkpt lat="50.914999" lon="12.9022">
        <time>1970-01-01T00:00:00+00:00</time>
        <ele>272.0</ele>
      </trkpt>
      <trkpt lat="50.914992" lon="12.902366">
        <time>1970-01-01T00:00:00+00:00</time>
        <ele>273.0</ele>
      </trkpt>
      <trkpt lat="50.914905" lon="12.902444">
        <time>1970-01-01T00:00:00+00:00</time>
        <ele>275.0</ele>
      </trkpt>
      <trkpt lat="50.914846" lon="12.902532">
        <time>1970-01-01T00:00:00+00:00</time>
        <ele>277.0</ele>
      </trkpt>
      <trkpt lat="50.914795" lon="12.902669">
        <time>1970-01-01T00:00:00+00:00</time>
        <ele>278.0</ele>
      </trkpt>
      <trkpt lat="50.914674" lon="12.903233">
        <time>1970-01-01T00:00:00+00:00</time>
        <ele>280.0</ele>
      </trkpt>
      <trkpt lat="50.914627" lon="12.903363">
        <time>1970-01-01T00:00:00+00:00</time>
        <ele>281.0</ele>
      </trkpt>
      <trkpt lat="50.914517" lon="12.903575">
        <time>1970-01-01T00:00:00+00:00</time>
        <ele>283.0</ele>
      </trkpt>
      <trkpt lat="50.914401" lon="12.903764">
        <time>1970-01-01T00:00:00+00:00</time>
        <ele>285.0</ele>
      </trkpt>
      <trkpt lat="50.914331" lon="12.903844">
        <time>1970-01-01T00:00:00+00:00</time>
        <ele>286.0</ele>
      </trkpt>
      <trkpt lat="50.914313" lon="12.90385">
        <time>1970-01-01T00:00:00+00:00</time>
        <ele>287.0</ele>
      </trkpt>
      <trkpt lat="50.913575" lon="12.904083">
        <time>1970-01-01T00:00:00+00:00</time>
        <ele>298.0</ele>
      </trkpt>
      <trkpt lat="50.913532" lon="12.904096">
        <time>1970-01-01T00:00:00+00:00</time>
        <ele>298.0</ele>
      </trkpt>
      <trkpt lat="50.913516" lon="12.904101">
        <time>1970-01-01T00:00:00+00:00</time>
        <ele>298.0</ele>
      </trkpt>
      <trkpt lat="50.912897" lon="12.904167">
        <time>1970-01-01T00:00:00+00:00</time>
        <ele>305.0</ele>
      </trkpt>
      <trkpt lat="50.912751" lon="12.904176">
        <time>1970-01-01T00:00:00+00:00</time>
        <ele>307.0</ele>
      </trkpt>
      <trkpt lat="50.912528" lon="12.904179">
        <time>1970-01-01T00:00:00+00:00</time>
        <ele>308.0</ele>
      </trkpt>
      <trkpt lat="50.912146" lon="12.904444">
        <time>1970-01-01T00:00:00+00:00</time>
        <ele>314.0</ele>
      </trkpt>
      <trkpt lat="50.912146" lon="12.904444">
        <time>1970-01-01T00:00:00+00:00</time>
        <ele>314.0</ele>
      </trkpt>
      <trkpt lat="50.912528" lon="12.904179">
        <time>1970-01-01T00:00:00+00:00</time>
        <ele>308.0</ele>
      </trkpt>
      <trkpt lat="50.912751" lon="12.904176">
        <time>1970-01-01T00:00:00+00:00</time>
        <ele>307.0</ele>
      </trkpt>
      <trkpt lat="50.912897" lon="12.904167">
        <time>1970-01-01T00:00:00+00:00</time>
        <ele>305.0</ele>
      </trkpt>
      <trkpt lat="50.913516" lon="12.904101">
        <time>1970-01-01T00:00:00+00:00</time>
        <ele>298.0</ele>
      </trkpt>
      <trkpt lat="50.913532" lon="12.904096">
        <time>1970-01-01T00:00:00+00:00</time>
        <ele>298.0</ele>
      </trkpt>
      <trkpt lat="50.913575" lon="12.904083">
        <time>1970-01-01T00:00:00+00:00</time>
        <ele>298.0</ele>
      </trkpt>
      <trkpt lat="50.914313" lon="12.90385">
        <time>1970-01-01T00:00:00+00:00</time>
        <ele>287.0</ele>
      </trkpt>
      <trkpt lat="50.914331" lon="12.903844">
        <time>1970-01-01T00:00:00+00:00</time>
        <ele>286.0</ele>
      </trkpt>
      <trkpt lat="50.914401" lon="12.903764">
        <time>1970-01-01T00:00:00+00:00</time>
        <ele>285.0</ele>
      </trkpt>
      <trkpt lat="50.914517" lon="12.903575">
        <time>1970-01-01T00:00:00+00:00</time>
        <ele>283.0</ele>
      </trkpt>
      <trkpt lat="50.914627" lon="12.903363">
        <time>1970-01-01T00:00:00+00:00</time>
        <ele>281.0</ele>
      </trkpt>
      <trkpt lat="50.914674" lon="12.903233">
        <time>1970-01-01T00:00:00+00:00</time>
        <ele>280.0</ele>
      </trkpt>
      <trkpt lat="50.914795" lon="12.902669">
        <time>1970-01-01T00:00:00+00:00</time>
        <ele>278.0</ele>
      </trkpt>
      <trkpt lat="50.914846" lon="12.902532">
        <time>1970-01-01T00:00:00+00:00</time>
        <ele>277.0</ele>
      </trkpt>
      <trkpt lat="50.914905" lon="12.902444">
        <time>1970-01-01T00:00:00+00:00</time>
        <ele>275.0</ele>
      </trkpt>
      <trkpt lat="50.914992" lon="12.902366">
        <time>1970-01-01T00:00:00+00:00</time>
        <ele>273.0</ele>
      </trkpt>
      <trkpt lat="50.914999" lon="12.9022">
        <time>1970-01-01T00:00:00+00:00</time>
        <ele>272.0</ele>
      </trkpt>
      <trkpt lat="50.915" lon="12.902016">
        <time>1970-01-01T00:00:00+00:00</time>
        <ele>271.0</ele>
      </trkpt>
      <trkpt lat="50.914979" lon="12.901304">
        <time>1970-01-01T00:00:00+00:00</time>
        <ele>270.0</ele>
      </trkpt>
      <trkpt lat="50.914978" lon="12.901203">
        <time>1970-01-01T00:00:00+00:00</time>
        <ele>270.0</ele>
      </trkpt>
      <trkpt lat="50.914975" lon="12.900999">
        <time>1970-01-01T00:00:00+00:00</time>
        <ele>271.0</ele>
      </trkpt>
      <trkpt lat="50.914964" lon="12.900667">
        <time>1970-01-01T00:00:00+00:00</time>
        <ele>271.0</ele>
      </trkpt>
      <trkpt lat="50.91496" lon="12.900592">
        <time>1970-01-01T00:00:00+00:00</time>
        <ele>271.0</ele>
      </trkpt>
      <trkpt lat="50.914954" lon="12.900473">
        <time>1970-01-01T00:00:00+00:00</time>
        <ele>271.0</ele>
      </trkpt>
      <trkpt lat="50.914949" lon="12.900409">
        <time>1970-01-01T00:00:00+00:00</time>
        <ele>271.0</ele>
      </trkpt>
      <trkpt lat="50.914891" lon="12.900013">
        <time>1970-01-01T00:00:00+00:00</time>
        <ele>271.0</ele>
      </trkpt>
      <trkpt lat="50.914889" lon="12.899684">
        <time>1970-01-01T00:00:00+00:00</time>
        <ele>270.0</ele>
      </trkpt>
      <trkpt lat="50.915112" lon="12.899683">
        <time>1970-01-01T00:00:00+00:00</time>
        <ele>270.0</ele>
      </trkpt>
      <trkpt lat="50.915231" lon="12.899672">
        <time>1970-01-01T00:00:00+00:00</time>
        <ele>270.0</ele>
      </trkpt>
      <trkpt lat="50.915346" lon="12.899637">
        <time>1970-01-01T00:00:00+00:00</time>
        <ele>271.0</ele>
      </trkpt>
      <trkpt lat="50.915419" lon="12.899611">
        <time>1970-01-01T00:00:00+00:00</time>
        <ele>271.0</ele>
      </trkpt>
      <trkpt lat="50.915532" lon="12.900449">
        <time>1970-01-01T00:00:00+00:00</time>
        <ele>273.0</ele>
      </trkpt>
    </trkseg>
  </trk>
</gpx>
